Paso Robles, CA

10:14 PM PDT on October 23, 2017 (GMT -0700)
Paso Robles Municipal

Weather History for KPRB - October, 2012

Change the Weather History Date:

Wednesday, October 24, 2012

  Actual Average Record
Temperature  
Mean Temperature 52 °F 59 °F  
Max Temperature 69 °F 76 °F 100 °F (1959)
Min Temperature 35 °F 43 °F 27 °F (1975)
Degree Days  
Heating Degree Days 13 6  
Month to date heating degree days 80 89  
Since 1 July heating degree days 84 121  
Cooling Degree Days 0 0  
Month to date cooling degree days 68 34  
Year to date cooling degree days 1144 925  
Growing Degree Days 2 (Base 50)    
Moisture  
Dew Point 39 °F    
Average Humidity 62    
Maximum Humidity 92    
Minimum Humidity 31    
Precipitation  
Precipitation 0.00 in 0.02 in 0.29 in (1998)
Month to date precipitation 0.13 0.40  
Year to date precipitation 6.01 9.52  
Since 1 July precipitation 0.14  
Sea Level Pressure  
Sea Level Pressure 30.12 in    
Wind  
Wind Speed 6 mph (NW)    
Max Wind Speed 18 mph    
Max Gust Speed 28 mph    
Visibility 10 miles    
Events      
T = Trace of Precipitation, MM = Missing Value Source: NWS Daily Summary

Daily Weather History Graph

Daily Weather History Graph

Search for Another Location

Airport or City:

Trip Planner

Search our weather history database for the weather conditions in past years. The results will help you decide how hot, cold, wet, or windy it might be!

Date:

Astronomy

Oct. 24, 2012 Rise Set
Actual Time 7:17 AM PDT 6:15 PM PDT
Civil Twilight 6:51 AM PDT 6:41 PM PDT
Nautical Twilight 6:21 AM PDT 7:11 PM PDT
Astronomical Twilight 5:51 AM PDT 7:40 PM PDT
Moon 3:25 PM PDT 2:27 AM PDT
Length of Visible Light 11h 49m
Length of Day
10h 57m
Waxing Gibbous, 77% of the Moon is Illuminated
Oct 24
Waxing Gibbous
Oct 29
Full
Nov 6
Last Quarter
Nov 13
New
Nov 20
First Quarter

Hourly Weather History & Observations

Time (PDT) Temp. Windchill Dew Point Humidity Pressure Visibility Wind Dir Wind Speed Gust Speed Precip Events Conditions
12:53 AM 46.9 °F - 39.9 °F 77% 30.04 in 10.0 mi Calm Calm - N/A   Clear
1:53 AM 44.1 °F 42.5 °F 39.0 °F 82% 30.06 in 10.0 mi WSW 3.5 mph - N/A   Clear
2:53 AM 43.0 °F - 39.0 °F 86% 30.07 in 10.0 mi Calm Calm - N/A   Clear
3:53 AM 39.9 °F - 37.0 °F 89% 30.08 in 10.0 mi Calm Calm - N/A   Clear
4:35 AM 39.2 °F - 37.4 °F 93% 30.08 in 10.0 mi Calm Calm - N/A   Mostly Cloudy
4:42 AM 37.4 °F - 35.6 °F 93% 30.09 in 10.0 mi Calm Calm - N/A   Scattered Clouds
4:53 AM 37.9 °F - 36.0 °F 93% 30.09 in 10.0 mi Calm Calm - N/A   Partly Cloudy
5:53 AM 37.0 °F 34.5 °F 35.1 °F 93% 30.11 in 10.0 mi East 3.5 mph - N/A   Clear
6:53 AM 35.1 °F - 34.0 °F 96% 30.12 in 10.0 mi Calm Calm - N/A   Clear
7:53 AM 36.0 °F - 34.0 °F 93% 30.14 in 10.0 mi Calm Calm - N/A   Clear
8:53 AM 42.1 °F - 37.9 °F 85% 30.17 in 10.0 mi Calm Calm - N/A   Clear
9:53 AM 48.9 °F - 41.0 °F 74% 30.17 in 10.0 mi Calm Calm - N/A   Clear
10:53 AM 54.0 °F - 42.1 °F 64% 30.17 in 10.0 mi Calm Calm - N/A   Clear
11:53 AM 59.0 °F - 39.9 °F 49% 30.15 in 10.0 mi WSW 5.8 mph - N/A   Clear
12:53 PM 64.0 °F - 39.0 °F 40% 30.14 in 10.0 mi WNW 8.1 mph - N/A   Clear
1:53 PM 66.9 °F - 39.0 °F 36% 30.12 in 10.0 mi NW 9.2 mph - N/A   Clear
2:53 PM 69.1 °F - 37.9 °F 32% 30.10 in 10.0 mi NNW 15.0 mph - N/A   Clear
3:53 PM 69.1 °F - 37.0 °F 31% 30.10 in 10.0 mi NW 18.4 mph 23.0 mph N/A   Clear
4:53 PM 69.1 °F - 37.9 °F 32% 30.10 in 10.0 mi NW 15.0 mph - N/A   Clear
5:53 PM 66.0 °F - 39.0 °F 37% 30.12 in 10.0 mi NNW 13.8 mph - N/A   Clear
6:53 PM 62.1 °F - 37.9 °F 41% 30.13 in 10.0 mi NNW 10.4 mph - N/A   Clear
7:53 PM 59.0 °F - 39.0 °F 48% 30.16 in 10.0 mi NNW 10.4 mph - N/A   Clear
8:53 PM 57.0 °F - 43.0 °F 59% 30.17 in 10.0 mi NW 8.1 mph - N/A   Clear
9:53 PM 55.9 °F - 44.1 °F 64% 30.18 in 10.0 mi NW 9.2 mph - N/A   Clear
10:53 PM 55.0 °F - 46.0 °F 72% 30.19 in 10.0 mi NNW 9.2 mph - N/A   Overcast
11:53 PM 53.1 °F - 43.0 °F 69% 30.19 in 10.0 mi Calm Calm - N/A   Mostly Cloudy